Temperature
11 11 11 11 11 11 11 11 11 11 11 10 11 10 10 10 10 10 10 10 10 10 10 9 9 9 9 9 9 9 9 9 9 9 9 8 8 8 8 8 8 8 8
11 11 11 11 11 11 11 11 11 10 10 10 10 10 10 10 10 10 9 9 9 9 9 9 9 9 9 9 9 9 9 8 8 8 8 8 8 7 8 8 7 7 7
11 11 11 11 11 11 11 11 10 10 10 10 10 10 10 9 9 9 9 9 9 9 8 8 8 8 8 8 8 8 8 8 8 7 7 7 7 7 7 7 7 6 6
10 11 11 11 11 11 10 10 10 10 10 9 9 9 9 9 9 9 9 9 8 8 8 8 8 8 8 8 8 7 7 7 7 7 6 6 6 5 5 6 6 6 6
10 10 10 10 10 10 10 10 10 9 9 9 9 9 9 9 9 8 8 8 8 8 8 8 8 7 7 7 7 7 7 7 6 6 6 6 5 5 4 5 6 6 5
10 10 10 10 10 10 10 10 9 9 9 9 9 9 8 8 8 8 8 8 8 8 8 7 7 7 7 7 7 7 6 6 6 6 5 5 5 4 4 4 4 4 5
10 10 10 10 10 10 10 9 9 9 9 9 8 8 8 8 8 8 8 8 8 8 7 7 7 7 7 6 6 6 6 6 5 5 5 5 4 4 3 3 3 3 3
10 10 10 9 9 9 9 9 9 9 9 8 8 8 8 8 8 8 7 7 7 7 7 7 6 6 6 6 6 5 5 5 5 5 4 4 4 4 3 3 2 2 2
9 9 9 9 9 9 9 9 9 9 8 8 8 8 8 7 7 7 7 7 7 7 6 6 6 6 6 5 5 5 5 4 4 4 4 4 4 3 3 2 2 1 1
9 9 9 9 9 9 8 8 8 8 8 8 8 7 7 7 7 7 7 6 6 6 6 6 6 5 5 5 5 5 4 4 4 4 3 3 3 3 2 2 2 1 1
9 9 9 8 8 8 8 8 8 8 7 7 7 7 7 7 6 6 6 6 6 6 6 5 5 5 5 5 4 4 4 4 4 3 3 3 3 2 2 2 1 1 1
9 8 8 8 8 8 8 8 7 7 7 7 7 7 6 6 6 6 6 6 6 6 5 5 5 5 4 4 4 4 4 3 3 3 3 3 2 2 2 1 1 1 0
8 8 8 8 8 7 7 7 7 7 7 6 6 6 6 6 6 6 6 5 5 5 5 5 5 4 4 4 4 3 3 3 3 2 2 2 2 1 1 1 1 0 -0
8 8 8 7 7 7 7 7 7 6 6 6 6 6 6 6 5 5 5 5 5 5 5 4 4 4 4 4 3 3 3 3 2 2 2 2 1 1 1 0 0 -0 -1
8 8 7 7 7 7 7 6 6 6 6 6 5 5 5 5 5 5 5 5 4 4 4 4 4 4 3 3 3 3 2 2 2 2 1 1 1 1 0 -0 -0 -1 -1
8 7 7 7 7 6 6 6 6 5 5 5 5 5 5 5 5 4 4 4 4 4 4 4 3 3 3 3 2 2 2 2 1 1 1 1 0 0 -0 -1 -1 -1 -2
7 7 7 7 6 6 6 5 5 5 5 5 5 4 4 4 4 4 4 4 4 3 3 3 3 3 3 2 2 1 1 1 1 1 0 0 -0 -1 -1 -1 -1 -2 -2
7 7 6 6 6 6 5 5 5 4 4 4 4 4 4 4 4 4 4 3 3 3 3 3 2 2 2 2 2 1 1 1 1 0 0 -0 -1 -1 -1 -2 -2 -2 -2
6 6 6 6 5 5 5 5 4 4 4 4 4 4 4 4 3 3 3 3 3 3 2 2 2 2 2 2 1 1 1 0 0 -0 -0 -1 -1 -1 -2 -2 -2 -2 -3
6 6 5 5 5 5 4 4 4 4 4 4 3 3 3 3 3 3 3 2 2 2 2 2 2 1 1 1 1 0 0 0 -0 -0 -1 -1 -2 -2 -2 -3 -3 -3 -3
5 5 5 5 4 4 4 4 4 4 3 3 3 3 3 3 2 2 2 2 2 2 2 1 1 1 1 1 1 0 -0 -0 -1 -1 -1 -2 -2 -2 -3 -3 -4 -4 -4
5 5 4 4 4 4 3 3 3 3 3 3 3 3 2 2 2 2 2 1 1 1 1 1 1 1 1 1 0 -0 -1 -1 -2 -2 -2 -2 -3 -3 -3 -4 -4 -4 -5
4 4 4 4 4 3 3 3 3 3 3 2 2 2 2 2 2 1 1 1 1 1 0 0 0 1 0 0 -0 -1 -1 -2 -2 -2 -2 -3 -3 -4 -4 -4 -4 -5 -5
4 3 3 3 3 3 3 3 2 2 2 2 2 2 2 1 1 1 1 0 0 -0 -0 -0 -0 -0 -0 -0 -1 -1 -1 -2 -2 -3 -3 -3 -4 -4 -4 -4 -5 -5 -5
3 3 3 3 3 2 2 2 2 2 2 1 1 1 1 1 1 0 0 -0 -0 -1 -1 -1 -1 -1 -1 -1 -2 -2 -2 -3 -3 -3 -4 -4 -4 -4 -5 -5 -5 -5 -5
3 3 2 2 2 2 2 2 1 1 1 1 1 1 0 0 0 -0 -0 -0 -1 -1 -1 -1 -2 -2 -2 -2 -2 -3 -3 -3 -4 -4 -4 -4 -4 -5 -5 -5 -5 -5 -6
Wind_Speed
3 2 2 3 3 2 2 2 2 2 2 1 1 1 0 1 1 2 3 3 3 3 3 3 3 3 3 3 3 2 3 3 4 3 3 3 3 3 3 4 4 6 8
2 2 2 2 3 3 3 2 3 2 2 2 2 1 1 0 1 1 2 3 3 3 2 2 1 2 2 4 4 3 2 3 4 2 2 3 3 3 4 3 4 5 6
5 4 3 3 3 3 3 3 3 3 3 3 2 1 1 1 1 1 1 2 2 2 1 1 1 1 1 2 2 2 2 2 2 2 1 1 2 3 3 3 4 4 4
4 4 4 3 4 4 3 2 2 2 2 3 3 3 2 2 2 2 1 2 2 1 1 1 0 0 0 1 2 1 1 0 1 2 1 1 1 1 3 3 2 4 4
3 3 3 3 3 2 2 2 2 2 2 3 4 3 3 3 2 2 2 2 2 2 2 1 1 1 1 1 1 1 1 0 1 1 1 1 0 1 2 3 3 3 2
1 1 0 1 1 0 0 1 2 3 2 3 3 4 5 4 3 3 3 3 2 2 2 2 2 2 1 2 1 1 1 1 1 1 1 1 1 1 2 3 3 4 3
2 1 1 1 0 0 1 1 1 3 2 2 4 5 5 5 5 5 4 3 2 2 3 2 2 2 2 2 1 1 2 2 2 2 2 2 2 2 2 3 3 3 3
1 1 1 1 1 1 1 1 1 2 2 2 3 3 4 3 4 4 4 4 4 4 3 3 3 3 3 3 2 2 2 2 2 3 2 2 2 2 2 2 2 3 3
1 0 1 0 0 1 1 1 1 2 2 2 2 3 3 4 4 4 4 4 4 4 3 3 3 3 3 3 2 3 3 2 3 3 3 3 2 2 2 2 2 2 3
0 1 1 1 1 1 1 1 1 1 2 2 2 2 3 3 4 3 4 4 4 3 3 3 3 3 3 3 3 3 3 3 3 3 3 3 3 2 2 2 2 3 4
2 1 0 1 1 1 1 1 2 2 2 2 2 2 3 2 3 3 4 4 4 4 4 4 4 4 4 4 4 4 4 4 4 3 4 4 3 3 3 2 2 3 3
2 1 0 1 2 2 2 2 2 3 3 2 2 2 3 2 3 4 4 4 4 4 4 4 4 5 5 5 5 5 5 5 5 5 5 5 4 4 3 3 4 4 4
2 1 0 1 1 2 3 3 3 3 3 2 2 2 3 3 3 4 4 4 4 4 4 4 5 5 5 5 6 6 6 6 6 6 6 6 5 5 4 4 4 4 4
3 2 1 2 2 2 3 3 4 4 3 3 2 3 4 4 4 4 4 4 4 4 5 5 5 6 6 6 6 6 6 6 7 7 7 7 7 7 6 5 6 5 4
3 3 3 3 3 3 3 3 4 4 3 3 3 4 4 4 4 4 4 4 4 5 5 5 5 5 5 6 6 6 7 7 7 7 7 7 9 10 8 6 5 5 4
4 4 4 4 4 4 4 4 4 4 3 3 4 4 4 4 4 4 4 4 5 5 5 5 6 6 6 10 11 8 7 7 7 7 7 7 9 11 12 12 10 8 6
5 5 5 5 5 5 4 4 4 4 3 4 4 4 4 5 5 5 4 5 5 5 5 6 6 7 9 13 13 13 7 7 7 7 7 6 7 9 6 9 10 9 11
5 5 4 4 4 3 3 3 3 3 3 4 5 5 4 5 5 4 5 5 5 5 6 6 7 7 9 13 13 13 8 7 8 8 8 8 7 7 7 6 6 6 7
5 4 4 4 3 4 3 2 3 3 4 5 5 5 5 5 5 5 6 5 5 6 6 6 7 8 10 13 14 13 6 6 8 8 8 8 7 11 12 7 7 7 7
3 3 3 2 3 4 2 2 4 4 5 6 6 5 5 5 6 6 6 5 5 6 6 7 7 8 9 13 14 13 5 6 6 6 7 11 10 11 12 7 7 8 7
3 3 3 3 4 3 2 3 5 6 6 6 6 6 5 6 6 6 5 5 6 6 7 8 8 8 10 12 15 14 6 7 7 6 6 7 12 13 13 11 8 10 8
3 2 3 4 4 3 3 5 7 6 5 5 6 6 6 6 5 5 6 5 5 6 7 7 9 7 8 10 12 14 13 11 7 7 6 7 12 13 13 10 10 12 9
4 3 3 5 5 4 4 6 7 5 5 5 6 6 6 6 5 5 6 6 5 5 7 6 8 8 6 7 12 14 14 14 8 6 9 10 12 11 9 11 11 9 5
4 3 3 5 6 5 5 7 7 5 5 6 7 6 6 7 6 5 5 5 6 6 7 7 8 8 7 6 5 6 7 9 8 6 8 11 11 9 8 8 6 4 4
4 4 5 6 7 7 7 7 6 5 6 7 7 7 6 6 7 7 6 7 8 8 9 8 8 8 9 9 11 8 6 5 6 5 3 3 4 4 4 4 4 4 4
5 5 6 7 7 7 8 8 6 5 6 7 7 6 6 6 6 7 8 11 12 15 16 16 14 11 14 16 16 15 14 13 11 7 5 6 6 6 6 6 5 5 5
Wind_Direction
249 205 180 161 146 152 160 165 159 165 128 109 123 113 304 317 3 1 6 11 16 35 47 40 23 23 23 7 0 3 10 7 356 6 1 2 21 39 39 36 38 32 31
228 211 184 176 182 191 193 190 197 189 166 157 160 157 160 257 257 323 351 356 359 10 32 56 29 17 16 9 7 15 8 3 17 24 6 346 345 11 21 22 34 27 29
214 213 211 211 209 214 209 211 211 204 187 168 129 105 55 359 335 320 308 321 327 341 6 17 26 17 22 350 346 5 26 353 357 29 60 42 302 316 330 5 23 18 17
216 210 212 219 224 230 223 221 212 212 202 174 171 181 203 233 245 248 263 298 314 307 298 298 338 356 347 320 326 14 8 47 333 341 18 171 202 285 313 321 356 7 6
216 218 218 222 225 218 216 222 227 237 220 192 190 197 222 230 250 260 275 283 287 288 276 260 249 261 271 277 299 325 337 191 233 262 287 285 289 217 238 291 318 338 329
178 196 202 179 197 157 219 237 248 264 245 210 201 206 220 234 252 263 267 276 275 272 266 255 242 244 251 258 264 267 268 246 233 234 220 214 231 239 235 263 294 303 295
128 125 129 151 145 340 294 264 256 274 263 221 218 219 220 224 236 248 252 262 268 264 258 242 238 238 242 246 244 242 249 238 235 237 237 232 236 234 233 256 279 287 293
145 155 186 202 265 308 315 301 275 280 289 253 242 234 226 223 237 242 243 248 249 254 248 237 237 241 242 243 229 234 241 234 238 246 239 237 249 237 229 233 259 294 298
175 126 31 33 314 319 291 270 278 297 304 283 259 250 240 233 245 253 247 250 250 254 243 234 237 241 237 230 224 232 238 231 235 243 240 237 247 239 234 229 221 240 284
173 28 30 5 342 300 287 318 284 284 294 296 275 270 258 246 246 247 250 252 254 252 251 247 243 245 241 231 224 234 235 227 236 234 236 243 247 245 236 226 226 223 235
207 211 325 345 346 348 356 354 337 323 313 313 312 300 290 279 263 254 256 255 254 249 245 244 242 243 242 233 224 232 230 232 242 240 234 243 237 237 240 231 224 226 223
202 197 203 14 5 350 337 327 318 308 300 304 307 294 292 294 283 276 273 264 258 255 248 245 244 245 243 234 226 233 232 229 237 240 236 245 241 239 238 231 231 234 229
200 182 143 331 316 314 316 313 306 298 301 306 305 302 300 296 287 283 280 270 263 265 259 245 244 247 245 240 233 228 231 230 234 233 232 238 232 242 242 236 238 241 245
208 210 237 262 281 292 294 297 298 295 302 306 301 292 287 282 280 284 283 278 269 266 263 253 249 248 248 243 239 233 233 234 236 234 233 233 229 235 236 238 236 236 243
224 229 244 258 273 284 289 292 293 297 296 294 288 279 282 285 287 289 288 288 281 270 263 259 257 253 249 246 239 235 233 233 238 238 236 236 237 239 238 237 229 224 234
237 247 253 254 262 269 277 287 290 295 292 280 277 279 284 289 289 288 291 292 287 280 270 261 259 258 258 261 257 248 233 232 234 242 243 244 249 250 250 251 246 235 232
243 250 251 249 255 256 256 265 277 289 291 283 284 285 285 287 286 288 291 286 283 280 276 270 262 260 262 268 268 261 246 232 234 237 241 247 245 247 244 254 258 258 255
241 247 247 251 254 253 260 267 277 284 286 285 286 285 283 284 287 287 283 281 279 277 275 273 267 265 268 272 271 268 256 238 234 234 234 238 244 238 234 233 241 245 252
232 238 241 242 247 258 262 271 282 284 283 281 281 283 281 282 286 284 282 280 279 280 276 274 269 266 271 273 272 268 251 243 240 236 233 235 238 248 249 241 240 248 252
244 244 249 250 258 269 265 264 275 279 275 274 277 281 279 275 275 276 279 278 273 275 279 278 269 263 267 272 272 267 247 244 246 242 238 244 244 249 251 242 238 249 251
250 254 256 258 259 261 251 264 271 269 269 275 282 283 277 271 271 275 274 277 280 283 282 281 279 267 266 273 272 267 248 237 242 244 242 240 249 252 252 249 239 248 251
262 259 262 272 273 257 246 265 270 270 276 280 282 281 279 276 278 273 277 274 271 280 284 285 287 275 266 270 271 270 263 252 240 244 241 240 250 255 256 255 249 253 256
262 261 258 276 282 267 244 260 272 279 283 282 281 282 283 278 271 266 273 279 271 271 279 279 282 285 274 268 273 274 269 261 251 244 245 248 252 256 256 254 255 253 243
261 260 265 273 279 276 265 259 271 276 274 277 281 281 281 284 278 267 260 263 267 268 272 274 277 282 282 271 263 262 269 263 257 254 251 253 253 249 245 249 252 240 230
264 255 255 263 270 276 276 275 271 268 271 274 276 277 273 273 278 273 260 258 254 252 260 266 266 272 278 274 271 269 257 243 241 246 239 232 236 235 236 235 232 227 230
260 263 262 264 271 274 275 276 270 258 261 275 275 273 273 273 272 278 285 267 259 268 266 265 268 267 267 277 277 273 268 263 254 252 237 236 235 237 238 238 236 229 228
Height
1512 1514 1515 1517 1518 1519 1521 1521 1522 1523 1524 1524 1524 1524 1525 1525 1525 1524 1524 1524 1523 1522 1522 1521 1521 1519 1518 1517 1516 1515 1513 1512 1510 1509 1508 1507 1506 1505 1504 1504 1503 1502 1501
1510 1511 1513 1515 1516 1518 1519 1520 1521 1522 1522 1523 1523 1523 1523 1523 1523 1523 1523 1522 1522 1521 1520 1520 1519 1518 1517 1516 1514 1513 1512 1510 1509 1508 1506 1505 1505 1503 1503 1502 1501 1500 1499
1508 1510 1511 1513 1514 1516 1517 1518 1519 1520 1521 1521 1521 1521 1521 1521 1521 1521 1521 1520 1520 1519 1518 1517 1517 1516 1515 1514 1513 1511 1510 1509 1508 1507 1506 1505 1503 1502 1501 1500 1499 1498 1497
1506 1508 1509 1511 1512 1514 1515 1517 1518 1518 1519 1519 1519 1519 1519 1519 1519 1518 1518 1518 1517 1516 1516 1515 1514 1513 1512 1511 1511 1509 1508 1507 1506 1505 1504 1504 1502 1501 1498 1498 1497 1496 1494
1505 1506 1508 1509 1511 1512 1513 1515 1516 1516 1516 1516 1517 1517 1516 1517 1516 1516 1515 1515 1514 1513 1513 1512 1511 1511 1510 1509 1508 1507 1506 1505 1504 1503 1501 1501 1500 1499 1497 1494 1493 1492 1491
1504 1505 1507 1508 1509 1511 1512 1512 1513 1513 1514 1514 1514 1514 1514 1514 1513 1513 1512 1512 1511 1511 1510 1509 1508 1508 1507 1506 1505 1504 1503 1502 1501 1500 1499 1498 1497 1496 1494 1492 1490 1488 1487
1503 1505 1506 1507 1508 1509 1510 1510 1511 1511 1511 1511 1511 1511 1511 1511 1510 1509 1509 1508 1508 1507 1507 1506 1505 1504 1504 1503 1502 1501 1500 1499 1498 1497 1496 1495 1494 1493 1492 1490 1487 1485 1484
1503 1504 1506 1506 1507 1508 1508 1509 1509 1509 1508 1508 1508 1508 1508 1507 1507 1506 1505 1505 1504 1504 1503 1502 1502 1501 1500 1499 1498 1497 1496 1495 1494 1494 1493 1491 1490 1489 1488 1487 1485 1482 1480
1502 1504 1505 1506 1506 1507 1507 1507 1507 1506 1506 1506 1505 1505 1505 1504 1503 1503 1502 1502 1501 1500 1499 1498 1498 1497 1496 1495 1494 1493 1492 1492 1491 1490 1489 1488 1487 1486 1484 1483 1482 1482 1478
1502 1503 1504 1505 1505 1505 1506 1505 1505 1504 1504 1503 1502 1502 1502 1501 1500 1500 1499 1498 1497 1496 1495 1495 1494 1493 1492 1491 1490 1489 1488 1487 1487 1486 1485 1484 1483 1482 1481 1479 1478 1477 1476
1501 1502 1503 1504 1504 1504 1504 1503 1503 1502 1502 1500 1499 1499 1498 1498 1497 1496 1495 1494 1494 1493 1491 1491 1490 1489 1488 1487 1486 1485 1484 1483 1482 1481 1480 1479 1478 1477 1476 1475 1474 1473 1472
1500 1501 1502 1502 1502 1502 1502 1502 1501 1500 1499 1498 1497 1496 1495 1494 1494 1493 1492 1491 1490 1489 1487 1486 1485 1484 1483 1482 1481 1480 1479 1478 1477 1476 1475 1474 1474 1472 1472 1471 1469 1468 1467
1499 1500 1500 1501 1501 1501 1500 1500 1499 1498 1496 1495 1494 1493 1492 1491 1490 1489 1488 1487 1485 1484 1483 1482 1481 1479 1478 1477 1476 1475 1474 1473 1472 1471 1470 1469 1468 1467 1467 1466 1464 1463 1462
1497 1498 1499 1499 1499 1498 1498 1497 1496 1495 1493 1492 1491 1490 1489 1488 1486 1485 1484 1482 1481 1480 1478 1477 1476 1474 1473 1472 1471 1470 1469 1468 1467 1466 1465 1464 1463 1462 1461 1460 1459 1458 1457
1495 1496 1496 1496 1496 1496 1495 1494 1493 1491 1490 1489 1488 1486 1485 1484 1483 1481 1480 1478 1477 1475 1474 1472 1471 1469 1468 1467 1465 1464 1463 1462 1461 1460 1459 1458 1458 1457 1456 1455 1454 1453 1452
1493 1493 1493 1493 1493 1492 1491 1490 1489 1488 1487 1486 1484 1483 1482 1480 1479 1477 1476 1474 1472 1471 1469 1467 1465 1464 1462 1461 1460 1458 1457 1456 1455 1454 1453 1452 1452 1451 1450 1449 1448 1448 1447
1490 1490 1490 1490 1489 1489 1488 1487 1486 1485 1483 1482 1481 1479 1478 1476 1474 1473 1471 1469 1467 1466 1464 1462 1460 1458 1457 1456 1454 1453 1451 1450 1449 1448 1447 1446 1446 1445 1444 1444 1443 1442 1441
1487 1487 1487 1487 1486 1485 1484 1483 1482 1481 1480 1479 1477 1475 1473 1471 1470 1468 1466 1464 1462 1460 1458 1456 1454 1452 1451 1450 1448 1447 1445 1443 1442 1442 1441 1440 1440 1439 1438 1437 1436 1436 1435
1484 1484 1484 1483 1483 1482 1481 1480 1479 1477 1476 1475 1473 1471 1469 1467 1465 1463 1461 1459 1457 1454 1452 1450 1448 1446 1445 1444 1442 1440 1438 1437 1436 1435 1435 1434 1433 1433 1432 1431 1430 1429 1429
1481 1481 1480 1480 1479 1478 1477 1476 1475 1473 1472 1470 1469 1467 1465 1462 1460 1458 1456 1454 1451 1449 1447 1445 1443 1441 1439 1437 1436 1434 1432 1430 1429 1428 1428 1427 1427 1426 1426 1425 1424 1423 1423
1478 1477 1477 1476 1475 1474 1473 1472 1470 1469 1467 1466 1464 1462 1460 1458 1455 1453 1451 1449 1446 1444 1441 1439 1437 1435 1433 1431 1429 1427 1425 1423 1422 1421 1421 1421 1421 1420 1420 1419 1418 1417 1418
1474 1474 1473 1472 1472 1470 1469 1467 1466 1465 1463 1461 1459 1457 1455 1453 1450 1448 1445 1443 1441 1438 1435 1432 1430 1428 1426 1424 1422 1420 1419 1417 1416 1415 1414 1414 1414 1414 1413 1413 1412 1412 1412
1471 1470 1469 1468 1467 1467 1465 1463 1462 1460 1458 1456 1454 1452 1450 1448 1445 1442 1440 1437 1435 1432 1429 1426 1423 1421 1419 1417 1416 1414 1412 1411 1410 1409 1408 1408 1408 1407 1407 1407 1406 1406 1406
1467 1466 1465 1464 1463 1462 1461 1459 1457 1455 1453 1451 1449 1447 1444 1442 1439 1437 1434 1431 1428 1426 1422 1420 1417 1414 1412 1410 1409 1407 1405 1404 1403 1402 1402 1402 1401 1401 1401 1401 1400 1400 1400
1463 1462 1461 1460 1459 1457 1456 1454 1452 1450 1447 1445 1443 1441 1438 1435 1433 1430 1428 1425 1422 1420 1417 1414 1411 1408 1405 1404 1402 1400 1399 1398 1397 1396 1396 1395 1395 1395 1395 1394 1394 1394 1394
1459 1457 1456 1455 1454 1452 1451 1449 1447 1445 1442 1439 1437 1434 1432 1429 1426 1423 1420 1418 1416 1413 1410 1407 1405 1401 1400 1397 1396 1394 1393 1392 1391 1391 1389 1389 1389 1389 1388 1388 1388 1388 1388